SBI781 UEEE-UIII

Flight info

Callsign SBI781
Flight time N/A
Altitude 38000
Route K0835F380 LEPRI6F LEPRI B155 OLDEP W269 GARAK W225 KA KA4Z
Aircraft B38M/M-SDE1FGHILORVWXY/HB1

Departure

Time 2026-04-26 01:00
Airport Platon Oyunsky Yakutsk International Airport (UEEE)

Arrival

Time N/A
Airport Irkutsk International Airport (UIII)
Time Latitude Longitude Altitude Speed Heading
2026-04-26 00:17 62.09412 129.76181 330 ft 0 kts 120°
2026-04-26 00:27 62.09412 129.76182 332 ft 0 kts 120°
2026-04-26 00:45 62.09412 129.76181 332 ft 0 kts 120°
2026-04-26 00:47 62.09421 129.76150 332 ft 3 kts 113°
2026-04-26 00:48 62.09422 129.76111 331 ft 3 kts 48°
2026-04-26 00:48 62.09416 129.76099 331 ft 0 kts 28°
2026-04-26 00:51 62.09416 129.76100 331 ft 0 kts 27°
2026-04-26 00:52 62.09418 129.76098 330 ft 0 kts
2026-04-26 00:52 62.09421 129.76094 331 ft 0 kts 336°
2026-04-26 00:52 62.09421 129.76084 330 ft 1 kts 289°
2026-04-26 00:52 62.09416 129.76074 331 ft 1 kts 223°
2026-04-26 00:53 62.09413 129.76074 332 ft 0 kts 200°
2026-04-26 00:53 62.09376 129.76052 330 ft 12 kts 206°
2026-04-26 00:53 62.09270 129.75934 329 ft 21 kts 207°
2026-04-26 00:53 62.09124 129.75779 330 ft 26 kts 205°
2026-04-26 00:54 62.08995 129.75581 329 ft 19 kts 206°
2026-04-26 00:54 62.08868 129.75420 327 ft 24 kts 211°
2026-04-26 00:54 62.08784 129.75389 329 ft 6 kts 166°
2026-04-26 00:54 62.08723 129.75417 327 ft 12 kts 140°
2026-04-26 00:55 62.08677 129.75581 328 ft 14 kts 120°
2026-04-26 00:55 62.08625 129.75784 332 ft 17 kts 119°
2026-04-26 00:55 62.08562 129.75957 330 ft 15 kts 124°
2026-04-26 00:55 62.08516 129.76167 331 ft 11 kts 73°
2026-04-26 00:56 62.08584 129.76279 330 ft 10 kts 32°
2026-04-26 00:56 62.08649 129.76406 330 ft 17 kts 38°
2026-04-26 00:56 62.08776 129.76615 329 ft 30 kts 37°
2026-04-26 00:56 62.08976 129.76933 327 ft 42 kts 37°
2026-04-26 00:57 62.09237 129.77355 330 ft 52 kts 38°
2026-04-26 00:57 62.09552 129.77854 327 ft 61 kts 36°
2026-04-26 00:57 62.09911 129.78419 326 ft 62 kts 37°
2026-04-26 00:57 62.10231 129.78929 323 ft 53 kts 38°
2026-04-26 00:58 62.10498 129.79363 322 ft 42 kts 36°
2026-04-26 00:58 62.10630 129.79470 321 ft 6 kts 64°
2026-04-26 00:58 62.10619 129.79507 321 ft 4 kts 150°
2026-04-26 00:58 62.10557 129.79461 321 ft 16 kts 217°
2026-04-26 00:59 62.10336 129.79104 322 ft 67 kts 217°
2026-04-26 00:59 62.09817 129.78282 328 ft 117 kts 218°
2026-04-26 00:59 62.09055 129.77050 356 ft 156 kts 218°
2026-04-26 00:59 62.08164 129.75559 507 ft 168 kts 218°
2026-04-26 01:00 62.07242 129.74031 971 ft 165 kts 220°
2026-04-26 01:00 62.06388 129.72476 1448 ft 159 kts 240°
2026-04-26 01:00 62.05616 129.70860 1781 ft 158 kts 213°
2026-04-26 01:00 62.04675 129.69591 2075 ft 162 kts 216°
2026-04-26 01:01 62.03702 129.68296 2377 ft 172 kts 216°
2026-04-26 01:01 62.02665 129.66890 2626 ft 180 kts 214°
2026-04-26 01:01 62.01596 129.65455 2908 ft 186 kts 215°
2026-04-26 01:01 62.00481 129.63949 3161 ft 196 kts 214°
2026-04-26 01:02 61.99325 129.62357 3412 ft 201 kts 214°
2026-04-26 01:02 61.98189 129.60533 3649 ft 210 kts 228°
2026-04-26 01:02 61.97274 129.57947 3866 ft 230 kts 238°
2026-04-26 01:02 61.96396 129.54964 4089 ft 249 kts 244°
2026-04-26 01:03 61.95752 129.51542 4498 ft 252 kts 257°
2026-04-26 01:03 61.95428 129.47863 4949 ft 259 kts 265°
2026-04-26 01:03 61.95287 129.43947 5405 ft 273 kts 270°
2026-04-26 01:03 61.95245 129.39817 5864 ft 287 kts 271°
2026-04-26 01:04 61.95230 129.36953 6175 ft 296 kts 271°
2026-04-26 01:04 61.95212 129.32548 6715 ft 301 kts 272°
2026-04-26 01:04 61.95189 129.28045 7264 ft 306 kts 272°
2026-04-26 01:04 61.95160 129.23502 7839 ft 310 kts 272°
2026-04-26 01:05 61.95124 129.18901 8500 ft 312 kts 272°
2026-04-26 01:05 61.95079 129.14282 9209 ft 315 kts 272°
2026-04-26 01:05 61.95024 129.09652 9946 ft 317 kts 272°
2026-04-26 01:05 61.94954 129.04888 10637 ft 319 kts 272°
2026-04-26 01:06 61.94792 129.00224 11301 ft 322 kts 265°
2026-04-26 01:06 61.94316 128.95519 11928 ft 328 kts 258°
2026-04-26 01:06 61.93681 128.90826 12528 ft 332 kts 256°
2026-04-26 01:06 61.92996 128.86107 13142 ft 335 kts 256°
2026-04-26 01:07 61.92297 128.81369 13713 ft 339 kts 256°
2026-04-26 01:07 61.91583 128.76552 14254 ft 343 kts 256°
2026-04-26 01:07 61.90863 128.71684 14782 ft 347 kts 256°
2026-04-26 01:07 61.90140 128.66777 15311 ft 350 kts 256°
2026-04-26 01:08 61.89415 128.61836 15856 ft 352 kts 256°
2026-04-26 01:08 61.88687 128.56856 16389 ft 354 kts 256°
2026-04-26 01:08 61.87964 128.51860 16949 ft 355 kts 256°
2026-04-26 01:08 61.87250 128.46904 17505 ft 357 kts 256°
2026-04-26 01:09 61.86520 128.41812 18086 ft 358 kts 256°
2026-04-26 01:09 61.85805 128.36811 18584 ft 360 kts 256°
2026-04-26 01:09 61.85077 128.31729 19050 ft 361 kts 255°
2026-04-26 01:09 61.84323 128.26625 19521 ft 363 kts 255°
2026-04-26 01:10 61.83562 128.21511 19992 ft 365 kts 255°
2026-04-26 01:10 61.82797 128.16385 20420 ft 367 kts 255°
2026-04-26 01:10 61.82025 128.11221 20871 ft 369 kts 255°
2026-04-26 01:10 61.81251 128.06033 21313 ft 370 kts 255°
2026-04-26 01:11 61.80475 128.00837 21761 ft 371 kts 255°
2026-04-26 01:11 61.79702 127.95663 22195 ft 373 kts 255°
2026-04-26 01:11 61.78919 127.90404 22613 ft 375 kts 255°
2026-04-26 01:11 61.78134 127.85130 23025 ft 377 kts 255°
2026-04-26 01:12 61.77344 127.79811 23435 ft 380 kts 255°
2026-04-26 01:12 61.76549 127.74452 23819 ft 382 kts 255°
2026-04-26 01:12 61.75755 127.69091 24157 ft 383 kts 255°
2026-04-26 01:12 61.74960 127.63707 24498 ft 385 kts 255°
2026-04-26 01:13 61.74174 127.58359 24841 ft 386 kts 255°
2026-04-26 01:13 61.73378 127.52938 25189 ft 387 kts 255°
2026-04-26 01:13 61.72584 127.47509 25545 ft 388 kts 255°
2026-04-26 01:13 61.71787 127.42057 25902 ft 388 kts 255°
2026-04-26 01:14 61.70991 127.36601 26264 ft 389 kts 256°
2026-04-26 01:14 61.70196 127.31160 26629 ft 388 kts 255°
2026-04-26 01:14 61.69403 127.25720 26998 ft 388 kts 255°
2026-04-26 01:14 61.68614 127.20292 27370 ft 387 kts 255°
2026-04-26 01:15 61.67828 127.14927 27754 ft 387 kts 255°
2026-04-26 01:15 61.67033 127.09521 28135 ft 387 kts 255°
2026-04-26 01:15 61.66252 127.04111 28490 ft 386 kts 255°
2026-04-26 01:15 61.65477 126.98709 28834 ft 385 kts 256°
2026-04-26 01:16 61.64708 126.93312 29170 ft 385 kts 255°
2026-04-26 01:16 61.63952 126.87900 29489 ft 385 kts 255°
2026-04-26 01:16 61.63199 126.82490 29813 ft 386 kts 255°
2026-04-26 01:16 61.62439 126.77048 30139 ft 386 kts 255°
2026-04-26 01:17 61.61688 126.71632 30430 ft 386 kts 256°
2026-04-26 01:17 61.60946 126.66281 30650 ft 387 kts 255°
2026-04-26 01:17 61.60194 126.60856 30870 ft 389 kts 255°
2026-04-26 01:17 61.59434 126.55388 31057 ft 391 kts 255°
2026-04-26 01:18 61.58679 126.49895 31247 ft 393 kts 255°
2026-04-26 01:18 61.57917 126.44346 31423 ft 395 kts 255°
2026-04-26 01:18 61.57062 126.38859 31599 ft 398 kts 251°
2026-04-26 01:18 61.56072 126.33411 31755 ft 401 kts 249°
2026-04-26 01:19 61.55019 126.27959 31917 ft 404 kts 250°
2026-04-26 01:19 61.53935 126.22500 32082 ft 406 kts 249°
2026-04-26 01:19 61.52843 126.17028 32250 ft 408 kts 246°
2026-04-26 01:19 61.51738 126.11496 32433 ft 411 kts 248°
2026-04-26 01:20 61.50622 126.05975 32597 ft 413 kts 248°
2026-04-26 01:20 61.49508 126.00481 32762 ft 416 kts 248°
2026-04-26 01:20 61.48379 125.94883 32928 ft 418 kts 248°
2026-04-26 01:20 61.47250 125.89250 33102 ft 420 kts 247°
2026-04-26 01:21 61.46122 125.83589 33253 ft 422 kts 248°
2026-04-26 01:21 61.44989 125.77901 33436 ft 424 kts 248°
2026-04-26 01:21 61.43860 125.72194 33652 ft 425 kts 248°
2026-04-26 01:21 61.42736 125.66480 33893 ft 426 kts 248°
2026-04-26 01:22 61.41614 125.60757 34130 ft 425 kts 248°
2026-04-26 01:22 61.40497 125.55054 34330 ft 424 kts 248°
2026-04-26 01:22 61.39385 125.49356 34504 ft 425 kts 248°
2026-04-26 01:22 61.38273 125.43652 34701 ft 424 kts 248°
2026-04-26 01:23 61.37160 125.37932 34909 ft 424 kts 248°
2026-04-26 01:23 61.36050 125.32224 35148 ft 424 kts 248°
2026-04-26 01:23 61.34960 125.26593 35383 ft 424 kts 248°
2026-04-26 01:23 61.33860 125.20892 35617 ft 424 kts 248°
2026-04-26 01:24 61.32760 125.15175 35850 ft 424 kts 248°
2026-04-26 01:24 61.31664 125.09463 36091 ft 424 kts 248°
2026-04-26 01:24 61.30574 125.03763 36340 ft 424 kts 248°
2026-04-26 01:24 61.29486 124.98066 36559 ft 423 kts 248°
2026-04-26 01:25 61.28401 124.92367 36821 ft 423 kts 248°
2026-04-26 01:25 61.27320 124.86680 37071 ft 423 kts 248°
2026-04-26 01:25 61.26244 124.80996 37321 ft 422 kts 248°
2026-04-26 01:25 61.25188 124.75398 37571 ft 421 kts 248°
2026-04-26 01:26 61.24122 124.69723 37832 ft 421 kts 248°
2026-04-26 01:26 61.23060 124.64051 38082 ft 420 kts 249°
2026-04-26 01:26 61.22006 124.58400 38252 ft 421 kts 248°
2026-04-26 01:26 61.20942 124.52681 38235 ft 427 kts 248°
2026-04-26 01:27 61.18774 124.41056 38244 ft 437 kts 248°
2026-04-26 01:27 61.16557 124.29185 38262 ft 446 kts 249°
2026-04-26 01:28 61.14308 124.17132 38252 ft 453 kts 249°
2026-04-26 01:28 61.12028 124.04909 38260 ft 456 kts 248°
2026-04-26 01:29 61.09760 123.92754 38263 ft 455 kts 249°
2026-04-26 01:29 61.07484 123.80553 38265 ft 455 kts 249°
2026-04-26 01:30 61.05210 123.68342 38264 ft 454 kts 249°
2026-04-26 01:30 61.02950 123.56165 38274 ft 454 kts 249°
2026-04-26 01:31 61.00702 123.44061 38276 ft 454 kts 249°
2026-04-26 01:31 60.98433 123.31869 38273 ft 455 kts 249°
2026-04-26 01:32 60.96169 123.19686 38277 ft 455 kts 249°
2026-04-26 01:32 60.93916 123.07521 38276 ft 453 kts 249°
2026-04-26 01:33 60.91672 122.95386 38278 ft 455 kts 249°
2026-04-26 01:33 60.89416 122.83231 38276 ft 456 kts 249°
2026-04-26 01:34 60.87160 122.71089 38274 ft 455 kts 249°
2026-04-26 01:34 60.84680 122.59226 38278 ft 454 kts 243°
2026-04-26 01:35 60.81757 122.47747 38280 ft 454 kts 242°
2026-04-26 01:35 60.78729 122.36369 38281 ft 456 kts 241°
2026-04-26 01:36 60.75701 122.25089 38279 ft 455 kts 241°
2026-04-26 01:37 60.71116 122.08066 38277 ft 456 kts 241°
2026-04-26 01:37 60.68063 121.96731 38278 ft 455 kts 241°
2026-04-26 01:38 60.65016 121.85412 38283 ft 456 kts 241°
2026-04-26 01:38 60.61970 121.74089 38283 ft 455 kts 241°
2026-04-26 01:39 60.58936 121.62802 38286 ft 454 kts 241°
2026-04-26 01:39 60.55894 121.51482 38292 ft 457 kts 241°
2026-04-26 01:40 60.52853 121.40161 38288 ft 456 kts 241°
2026-04-26 01:40 60.49819 121.28861 38293 ft 456 kts 241°
2026-04-26 01:41 60.46801 121.17610 38293 ft 456 kts 242°
2026-04-26 01:41 60.43742 121.06363 38300 ft 456 kts 239°
2026-04-26 01:42 60.40267 120.95617 38295 ft 457 kts 235°
2026-04-26 01:42 60.36611 120.85082 38304 ft 458 kts 234°
2026-04-26 01:43 60.32918 120.74577 38306 ft 457 kts 234°
2026-04-26 01:43 60.29253 120.64184 38297 ft 456 kts 234°
2026-04-26 01:44 60.25576 120.53764 38297 ft 455 kts 234°
2026-04-26 01:44 60.21902 120.43350 38289 ft 455 kts 234°
2026-04-26 01:45 60.18225 120.32920 38299 ft 457 kts 234°
2026-04-26 01:45 60.14578 120.22563 38300 ft 457 kts 235°
2026-04-26 01:46 60.10909 120.12132 38296 ft 458 kts 235°
2026-04-26 01:46 60.07233 120.01688 38296 ft 458 kts 235°
2026-04-26 01:47 60.03561 119.91245 38299 ft 458 kts 235°
2026-04-26 01:47 59.99930 119.80904 38297 ft 459 kts 235°
2026-04-26 01:48 59.96260 119.70430 38295 ft 459 kts 235°
2026-04-26 01:48 59.92606 119.60015 38295 ft 458 kts 235°
2026-04-26 01:49 59.88942 119.49577 38288 ft 458 kts 235°
2026-04-26 01:49 59.85295 119.39191 38297 ft 458 kts 235°